Find Starlink 32282

NORAD ID: 61006 Int'l Des: 2024-158 Owner: SPXS Country: US Constellation: starlink operational
LEOCIRCULAR

当前视图

正在加载3D地球...

About Starlink 32282

Starlink 32282 (NORAD 61006) is a starlink constellation satellite (v2 mini) launched Sep 5, 2024 by SPXS of US. It operates in LEO, CIRCULAR orbit with a mass of 730.00 kg.

关于 Starlink 32282

正在加载描述...

即将过境

Passes for default location (London). Set your location on the main map for personalized predictions.

高度历史

Loading altitude history...

两行轨道根数

1 61006U 24158S 26171.41656994 -.00003064 00000-0 -79638-4 0 9996
2 61006 53.1595 308.0623 0001060 89.4815 270.6309 15.34383954101382
Epoch: Jun 20, 2026 • Age: 44 hours

当前状态

高度 468.0 km
速度 7.64 km/s
星下点 50.24°N, 1.28°E
发射日期 Sep 5, 2024
运行时间 1.7 years
类型 internet

技术详情

分类 Payload
质量 730.00 kg
干质量 700.00 kg
总质量 730.00 kg
长度 0.30 m
直径 4.10 m
跨度 29.00 m
形状 Box + pan
制造商 SPXS
平台类型 Starlink V2M
阶段状态 In Orbit
所有者/国家 SPXS/US

Most Searched